Moffett NAS, CA

8:29 PM PDT on May 26, 2017 (GMT -0700)
Moffett Federal Air Field

Weather History for KNUQ - December, 2011

Change the Weather History Date:

Thursday, December 8, 2011

  Actual Average Record
Temperature  
Mean Temperature 50 °F 51 °F  
Max Temperature 61 °F 60 °F 72 °F (1988)
Min Temperature 39 °F 43 °F 31 °F (2009)
Degree Days  
Heating Degree Days 15    
Month to date heating degree days 84  
Since 1 July heating degree days 367  
Cooling Degree Days 0    
Month to date cooling degree days 0  
Year to date cooling degree days 459  
Moisture  
Dew Point 37 °F    
Average Humidity 61    
Maximum Humidity 79    
Minimum Humidity 42    
Precipitation  
Precipitation 0.00 in 0.08 in 0.89 in (1955)
Month to date precipitation 0.00 0.55  
Year to date precipitation 11.11 12.67  
Since 1 July precipitation 1.61  
Sea Level Pressure  
Sea Level Pressure 30.16 in    
Wind  
Wind Speed 1 mph (South)    
Max Wind Speed 10 mph    
Max Gust Speed 12 mph    
Visibility 8 miles    
Events      
T = Trace of Precipitation, MM = Missing Value Source: NWS Daily Summary

Daily Weather History Graph

Daily Weather History Graph

Search for Another Location

Airport or City:

Trip Planner

Search our weather history database for the weather conditions in past years. The results will help you decide how hot, cold, wet, or windy it might be!

Date:

Astronomy

Dec. 08, 2011 Rise Set
Actual Time 7:09 AM PST 4:50 PM PST
Civil Twilight 6:40 AM PST 5:19 PM PST
Nautical Twilight 6:08 AM PST 5:51 PM PST
Astronomical Twilight 5:36 AM PST 6:23 PM PST
Moon 3:32 PM PST (12/8) 5:27 AM PST (12/8)
Length of Visible Light 10h 38m
Length of Day
9h 40m
Waxing Gibbous, 97% of the Moon is Illuminated
Dec 8
Waxing Gibbous
Dec 10
Full
Dec 17
Last Quarter
Dec 24
New
Dec 31
First Quarter

Hourly Weather History & Observations

Time (PST) Temp. Windchill Dew Point Humidity Pressure Visibility Wind Dir Wind Speed Gust Speed Precip Events Conditions
12:56 AM 42.1 °F - 32.0 °F 67% 30.18 in 9.0 mi Calm Calm - N/A   Clear
1:56 AM 41.0 °F - 32.0 °F 70% 30.18 in 9.0 mi Calm Calm - N/A   Clear
2:56 AM 41.0 °F - 32.0 °F 70% 30.18 in 9.0 mi Calm Calm - N/A   Clear
3:27 AM 41.0 °F - 33.8 °F 76% 30.17 in 9.0 mi Calm Calm - N/A   Mostly Cloudy
3:56 AM 41.0 °F - 33.1 °F 73% 30.18 in 9.0 mi Calm Calm - N/A   Scattered Clouds
4:11 AM 39.2 °F - 32.0 °F 75% 30.17 in 9.0 mi Calm Calm - N/A   Mostly Cloudy
4:27 AM 41.0 °F - 33.8 °F 76% 30.17 in 9.0 mi Calm Calm - N/A   Scattered Clouds
4:56 AM 39.9 °F - 33.1 °F 77% 30.17 in 9.0 mi Calm Calm - N/A   Clear
5:30 AM 39.2 °F - 33.8 °F 81% 30.17 in 9.0 mi Calm Calm - N/A   Mostly Cloudy
6:56 AM 42.1 °F - 34.0 °F 73% 30.19 in 9.0 mi Calm Calm - N/A   Mostly Cloudy
7:48 AM 42.8 °F - 35.6 °F 76% 30.18 in 8.0 mi Calm Calm - N/A   Scattered Clouds
7:56 AM 43.0 °F 41.3 °F 36.0 °F 76% 30.19 in 8.0 mi ESE 3.5 mph - N/A   Scattered Clouds
8:03 AM 44.6 °F - 37.4 °F 76% 30.18 in 7.0 mi Calm Calm - N/A   Overcast
8:56 AM 48.9 °F - 39.0 °F 69% 30.19 in 7.0 mi Calm Calm - N/A   Mostly Cloudy
9:30 AM 51.8 °F - 42.8 °F 71% 30.18 in 7.0 mi Calm Calm - N/A   Partly Cloudy
9:56 AM 52.0 °F - 41.0 °F 66% 30.19 in 6.0 mi Calm Calm - N/A   Haze
10:44 AM 55.4 °F - 42.8 °F 63% 30.17 in 2.5 mi Calm Calm - N/A   Haze
10:52 AM 55.4 °F - 41.0 °F 58% 30.17 in 6.0 mi NE 4.6 mph - N/A   Haze
10:56 AM 54.0 °F - 41.0 °F 62% 30.18 in 6.0 mi NNE 3.5 mph - N/A   Haze
11:56 AM 55.0 °F - 39.9 °F 57% 30.17 in 8.0 mi NNW 3.5 mph - N/A   Clear
12:56 PM 57.9 °F - 39.9 °F 51% 30.14 in 7.0 mi Calm Calm - N/A   Clear
1:56 PM 60.1 °F - 37.0 °F 42% 30.12 in 8.0 mi Calm Calm - N/A   Clear
2:56 PM 60.1 °F - 37.9 °F 44% 30.12 in 9.0 mi North 3.5 mph - N/A   Clear
3:56 PM 59.0 °F - 37.0 °F 44% 30.12 in 8.0 mi North 5.8 mph - N/A   Clear
4:56 PM 55.0 °F - 39.0 °F 55% 30.12 in 8.0 mi NW 5.8 mph - N/A   Clear
5:56 PM 54.0 °F - 39.9 °F 59% 30.13 in 8.0 mi Calm Calm - N/A   Clear
6:56 PM 52.0 °F - 39.0 °F 61% 30.14 in 8.0 mi Calm Calm - N/A   Clear
7:56 PM 48.9 °F - 37.9 °F 66% 30.14 in 9.0 mi Calm Calm - N/A   Clear
8:56 PM 45.0 °F - 35.1 °F 68% 30.16 in 10.0 mi Calm Calm - N/A   Clear
9:56 PM 46.0 °F - 35.1 °F 66% 30.16 in 10.0 mi Calm Calm - N/A   Clear
10:56 PM 45.0 °F - 35.1 °F 68% 30.18 in 10.0 mi Calm Calm - N/A   Clear
11:56 PM 45.0 °F 43.5 °F 35.1 °F 68% 30.18 in 10.0 mi WSW 3.5 mph - N/A   Clear